Welcome to the New NWS' Forecast!
Most changes are behind the scenes, but click here for differences you might notice.
Latest weather observations around

Philadelphia, Philadelphia International Airport (KPHL)

Using English Units (Switch to International System of Units)
Date/ Time (EDT) Wind (mph) Vis. (mi) Weather Sky Cond. Temp (°F) Rel. Humidity Wind Chill (°F) Heat Index (°F) Pressure Precip. (in)
Air Dwpt 6 hour Altimeter (inHg) Sea level (inHg) 1 hr 3 hr 6 hr
Max Min
Aug 16 05:54 S 5 10 Cloudy BKN220 OVC270 74 69     85%   75 30.04 30.04      
Aug 16 04:54 SW 5 10 Mostly Cloudy BKN280 74 69     85%   75 30.04 30.03      
Aug 16 03:54 SSW 6 10 Mostly Cloudy SCT250 BKN280 75 69     82%   76 30.03 30.03      
Aug 16 02:54 WSW 8 10 Mostly Cloudy BKN240 BKN280 77 69     77%   78 30.02 30.02      
Aug 16 01:54 SW 5 10 Cloudy BKN240 OVC280 77 70     79%   78 30.02 30.02      
Aug 16 00:54 WSW 6 10 Mostly Cloudy SCT250 BKN300 77 70     79%   78 30.03 30.02      
Aug 15 23:54 SW 9 10 Mostly Cloudy BKN280 79 69     72%   80 30.02 30.02      
Aug 15 22:54 SW 8 10 Partly Cloudy SCT280 80 69     69%   83 30.02 30.01      
Aug 15 21:54 WSW 10 10 Mostly Cloudy BKN280 82 68     63%   85 30.01 30.01      
Aug 15 20:54 SW 7 10 Mostly Cloudy FEW055 BKN280 83 67     59%   86 29.99 29.99      
Aug 15 19:54 WSW 9 10 Mostly Cloudy FEW055 BKN280 84 67     57%   87 29.97 29.97      
Aug 15 18:54 W 13 10 Mostly Cloudy FEW055 BKN280 86 65     50%   88 29.96 29.96      
Aug 15 17:54 W 13 10 Mostly Cloudy FEW055 BKN300 88 64     45%   89 29.96 29.95      
Aug 15 16:54 W 13 10 Partly Cloudy FEW055 SCT300 87 64     46%   88 29.96 29.95      
Aug 15 15:54 NW 10 10 Partly Cloudy FEW055 SCT300 89 63     42%   90 29.96 29.95      
Aug 15 14:54 W 13 10 Mostly Clear FEW050 FEW300 88 61     40%   88 29.96 29.96      
Aug 15 13:54 WNW 13 10 Mostly Clear FEW045 FEW300 87 64     46%   88 29.97 29.96      
Aug 15 12:54 NW 9 10 Mostly Clear FEW045 FEW300 85 64     50%   86 29.97 29.97      
Aug 15 11:54 WNW 10 10 Mostly Clear FEW040 FEW300 84 65     53%   86 29.97 29.97      
Aug 15 10:54 W 9 10 Clear CLR 82 66     58%   84 29.97 29.97      
Aug 15 09:54 NW 6 10 Clear CLR 79 65     62%   80 29.96 29.96      
Aug 15 08:54 WNW 10 10 Mostly Clear FEW150 FEW200 77 65     66%   78 29.95 29.95      
Aug 15 07:54 W 8 10 Partly Cloudy FEW100 FEW150 SCT200 74 65     74%   74 29.94 29.94      
Aug 15 06:54 WNW 7 10 Mostly Cloudy BKN100 BKN150 BKN200 73 65     76%   74 29.93 29.93      
Aug 15 05:54 WSW 8 10 Mostly Cloudy BKN095 BKN140 BKN200 73 65     76%   74 29.92 29.92      
Aug 15 04:54 W 7 10 Cloudy BKN080 BKN110 OVC160 73 65     76%   74 29.91 29.91      
Aug 15 03:54 WSW 9 10 Cloudy SCT080 BKN110 OVC200 72 66     82%   73 29.91 29.91      
Aug 15 02:54 WSW 10 10 Cloudy BKN085 OVC110 73 66     79%   74 29.9 29.9      
Aug 15 01:54 WSW 11 10 Mostly Cloudy BKN090 BKN140 BKN200 72 68     87%   73 29.91 29.9     0
Aug 15 01:32 WSW 10 10 Mostly Cloudy SCT085 BKN120 BKN180 72 68     87%   73 29.91        
Aug 15 00:54 WSW 11 8 Cloudy FEW080 BKN110 OVC180 72 68     87%   73 29.91 29.91 0    
Aug 15 00:18 WSW 11 8 Cloudy SCT075 BKN110 OVC150 73 67     81%   74 29.91   0    
Aug 14 23:54 WSW 13 6 Light Rain BKN055 OVC070 73 67     81%   74 29.92 29.91 0    
Aug 14 23:45 WSW 15 5 Rain BKN055 OVC070 73 67     81%   74 29.92   0    
Aug 14 23:39 W 15 7 Light Rain BKN060 OVC075 74 66     76%   75 29.92   0    
Aug 14 22:54 W 10 10 Cloudy SCT070 BKN110 OVC160 74 66     76%   75 29.91 29.91      
Aug 14 21:54 W 9 10 Mostly Cloudy SCT040 SCT070 BKN130 74 67     79%   75 29.9 29.9      
Aug 14 20:54 WSW 13 10 Mostly Cloudy SCT040 SCT070 BKN090 BKN150 75 68     79%   76 29.89 29.89      
Aug 14 19:54 SW 10 10 Mostly Cloudy FEW040 SCT100 BKN250 75 69     82%   76 29.87 29.87     1
Aug 14 18:54 WSW 9 10 Mostly Cloudy FEW040 SCT090 BKN250 75 68     79%   76 29.88 29.88 0    
Aug 14 18:15 SW 9 10 Mostly Cloudy FEW040 SCT070 BKN090 BKN250 75 69     82%   76 29.88   0    
Aug 14 18:05 WSW 11 10 Light Rain FEW040 SCT070 BKN090 BKN250 75 67     76%   76 29.88   0    
Aug 14 17:54 WSW 13 10 Thunderstorms and Rain FEW040 SCT080 BKN150 BKN250 79 68     69%   80 29.88 29.88 0    
Aug 14 17:45 W 10 10 Thunderstorms and Rain FEW040 SCT080 BKN150 BKN250 75 66     74%   76 29.88   0    
Aug 14 17:33 NW 14 10 Thunderstorms FEW040 SCT080 BKN150 BKN250 78 65     64%   79 29.87        
Aug 14 17:28   10 Mostly Cloudy FEW040 SCT080 BKN150 BKN250 79 68     69%   80 29.86        
Aug 14 16:54 SW 9 10 Partly Cloudy FEW030 SCT050 SCT250 78 69     74%   79 29.86 29.86   1  
Aug 14 16:27 SSE 9 10 Mostly Cloudy SCT040 SCT070 BKN130 BKN250 75 69     82%   76 29.85        
Aug 14 16:19 SSE 7 10 Mostly Cloudy SCT040 SCT070 BKN130 BKN250 77 70     79%   78 29.85        
Aug 14 15:54 S 6 10 Thunderstorms SCT040 BKN070 BKN130 BKN250 74 68     82%   75 29.86 29.86 1    
Aug 14 15:39 SSW 6 10 Thunderstorms SCT040 BKN070 BKN130 BKN250 72 69     91%   73 29.86   1    
Aug 14 15:14   5 Thunderstorms and Rain and Fog/Mist SCT020 BKN030 OVC090 70 67     90%     29.87   1    
Aug 14 15:11   2 Thunderstorms and Rain and Fog/Mist SCT020 BKN030 OVC090 70 67     90%     29.88   1    
Aug 14 14:54   2 Thunderstorms and Rain and Fog/Mist FEW030 BKN050 OVC090 74 69     85%   75 29.88 29.88 0    
Aug 14 14:50   4 Thunderstorms and Rain BKN050 OVC150 75 70     83%   76 29.87   0    
Aug 14 14:28 SW 16 10 Mostly Cloudy FEW040 BKN080 83 66     57%   85 29.86   0    
Aug 14 14:06 SW 11 10 Mostly Cloudy SCT035 SCT070 BKN250 79 67     67%   80 29.88   0    
Aug 14 13:54 SSW 11 10 Light Rain SCT035 SCT070 BKN250 76 67     74%   77 29.88 29.88 0   0
Notice The following observation data may not be complete
Aug 14 13:43   10 Thunderstorms and Rain SCT035 SCT070 BKN250          %         0    
Aug 14 13:31 SW 15 10 Light Rain SCT030 SCT075 SCT250 78 66     67%   79 29.89   0    
Aug 14 12:54 SW 14 10 Partly Cloudy SCT030 SCT080 SCT250 81 65     58%   83 29.88 29.88      
Aug 14 11:54 W 9 10 Partly Cloudy SCT028 SCT085 SCT250 78 67     69%   79 29.9 29.89 0    
Aug 14 11:35 WNW 9 10 Light Rain SCT025 BKN050 BKN250 76 67     74%   77 29.9   0    
Aug 14 11:22 W 11 10 Light Rain BKN025 BKN050 79 67     67%   80 29.9   0    
Aug 14 10:54 SW 10 10 Partly Cloudy SCT024 SCT250 78 67     69%   79 29.91 29.91      
Aug 14 09:33 W 6 10 Mostly Cloudy SCT012 BKN250 73 67     81%   74 29.9        
Aug 14 08:54 SSW 7 7 Mostly Cloudy SCT007 BKN011 BKN023 72 68     87%   73 29.91 29.9      
Notice The following observation data may not be complete
Aug 14 08:42   5 Fog/Mist BKN007 BKN011 OVC023          %              
Aug 14 07:54 WSW 3 4 Fog/Mist OVC005 69 68     96%     29.91 29.91      
Aug 14 07:46 WNW 5 3 Fog/Mist OVC005 69 67     93%     29.91        
Aug 14 07:15 WNW 7 2.5 Fog/Mist OVC005 68 67     96%     29.91        
Aug 14 07:07 WNW 8 4 Fog/Mist OVC005 69 67     93%     29.91        
Aug 14 07:00 WNW 6 5 Fog/Mist OVC006 69 67     93%     29.91        
Aug 14 06:54 W 6 7 Cloudy OVC006 69 67     93%     29.91 29.9      
Aug 14 05:54 SW 7 10 Cloudy BKN006 OVC011 70 68     93%     29.89 29.88      
Aug 14 05:38 SW 7 10 Cloudy BKN006 OVC012 70 68     93%     29.88        
Aug 14 05:21 WSW 7 8 Cloudy BKN007 OVC014 70 67     90%     29.88        
Aug 14 05:04 SW 5 8 Cloudy SCT007 BKN025 OVC045 70 67     90%     29.88        
Aug 14 04:54 SW 6 10 Cloudy SCT025 BKN050 OVC090 70 67     90%     29.88 29.88      
Aug 14 03:54 SW 6 10 Mostly Clear FEW120 FEW250 70 67     90%     29.87 29.87      
Aug 14 02:54 WSW 6 10 Mostly Clear FEW180 FEW250 71 66     84%   72 29.89 29.89      
Aug 14 01:54 SW 8 10 Mostly Cloudy BKN170 BKN250 72 66     82%   73 29.9 29.89      
Aug 13 23:54 SSW 7 10 Partly Cloudy FEW250 SCT300 73 67     81%   74 29.9 29.9      
Aug 13 21:54 NNW 7 10 Mostly Cloudy FEW040 SCT065 BKN180 BKN250 75 67     76%   76 29.91 29.91      
Aug 13 21:38 N 9 10 Mostly Cloudy FEW040 SCT065 BKN180 BKN250 75 68     79%   76 29.9        
Aug 13 20:57 S 7 10 Thunderstorms FEW040 SCT065 SCT140 BKN260 79 70     74%   82 29.9        
Aug 13 20:54 S 7 10 Mostly Cloudy FEW040 SCT065 SCT140 BKN260 79 70     74%   82 29.89 29.89      
Aug 13 19:54 S 3 10 Partly Cloudy SCT040 SCT140 SCT230 79 70     74%   82 29.89 29.88      
Aug 13 18:54 SE 3 10 Partly Cloudy SCT035 SCT120 SCT230 82 69     65%   85 29.88 29.88      
Aug 13 17:54 Calm 10 Mostly Cloudy SCT035 SCT120 BKN230 82 67     60%   85 29.88 29.88      
Aug 13 16:54 SSE 3 10 Mostly Cloudy SCT035 SCT160 BKN230 82 69     65%   85 29.9 29.89      
Aug 13 15:54 ESE 6 10 Mostly Cloudy SCT035 SCT160 BKN230 82 70     67%   86 29.91 29.9      
Aug 13 14:54 ENE 5 10 Mostly Cloudy FEW026 SCT040 SCT160 BKN230 82 71     69%   86 29.92 29.92      
Aug 13 14:11 SE 7 10 Mostly Cloudy SCT026 BKN042 BKN160 80 72     76%   84 29.94        
Aug 13 13:54 ESE 7 10 Mostly Cloudy FEW015 BKN026 BKN150 81 72     74%   85 29.94 29.94     0
Aug 13 13:07 ENE 8 10 Mostly Cloudy FEW014 BKN021 BKN045 BKN150 78 72     82%   79 29.95        
Aug 13 12:54 NE 8 10 Mostly Cloudy FEW012 BKN020 BKN045 BKN150 77 72     84%   78 29.96 29.96 0    
Aug 13 12:44 NE 9 10 Cloudy SCT012 BKN019 BKN045 OVC150 77 72     84%   78 29.96   0    
Aug 13 12:07 NNE 6 10 Light Rain BKN012 BKN020 OVC026 75 71     88%   76 29.98   0    
Aug 13 11:54 ENE 7 10 Cloudy SCT011 BKN040 OVC050 75 71     88%   76 29.97 29.97 0    
Aug 13 10:54 NNE 8 10 Cloudy FEW013 OVC032 74 70     87%   75 29.99 29.98 0 0  
Aug 13 10:41 6 10 Cloudy FEW013 BKN031 OVC043 74 70     87%   75 29.99   0    
Aug 13 09:15 WNW 11 1.5 Heavy Rain and Fog/Mist FEW007 BKN012 OVC024 71 69     93%   72 29.99   0    
Aug 13 08:54 WNW 7 2 Rain and Fog/Mist FEW007 BKN011 OVC024 73 69     87%   74 29.99 29.99 0    
Aug 13 08:32 E 8 3 Light Rain and Fog/Mist BKN011 BKN017 OVC024 73 72     96%   75 29.98   0    
Aug 13 08:06 ENE 7 3 Light Rain and Fog/Mist BKN011 OVC018 74 72     94%   75 29.99   0    
Aug 13 08:04 ENE 8 6 Light Rain and Fog/Mist BKN011 OVC018 74 72     94%   75 29.98   0    
Aug 13 08:00 ENE 8 7 Light Rain BKN011 OVC018 74 72     94%   75 29.98   0    
Aug 13 07:54 E 8 7 Light Rain OVC013 74 72     94%   75 29.98 29.98 0   0
Aug 13 07:43 E 11 7 Light Rain BKN013 OVC018 74 72     94%   75 29.98   0    
Aug 13 06:54 E 10 7 Rain BKN013 OVC024 74 72     94%   75 29.97 29.97 0    
May 14 16:54 SSW 9 10 Partly Cloudy FEW025 SCT230 73 62     68%   73 29.96 29.95      
May 14 12:54 3 7 Cloudy OVC014 64 57     78%     30.03 30.02      
May 13 16:54 SSE 6 10 Cloudy FEW007 OVC010 56 53     90%     30.1 30.1   0  
May 13 11:54 E 10 9 Cloudy OVC009 55 52     89%     30.15 30.15      
May 13 01:54 ENE 9 5 Fog/Mist OVC009 57 55     93%     30.1 30.09     1
May 12 11:15 6 9 Cloudy OVC010 61 56     83%     30.11        
May 12 09:54 E 6 10 Cloudy OVC009 59 56     90%     30.11 30.11      
May 12 07:54 ENE 14 6 Fog/Mist BKN008 OVC012 55 53     93%     30.11 30.11     1
May 12 05:54   3 Thunderstorms and Rain and Fog/Mist FEW018 BKN032 OVC046 54 52     93%     30.1 30.1 0    
May 12 03:51   4 Heavy Rain SCT035 OVC055 57 50     77%     30.15   0    
May 12 02:54 NNE 9 10 Cloudy BKN060 OVC100 60 46     60%     30.1 30.09      
May 12 00:54 E 5 10 Cloudy FEW041 BKN075 OVC095 60 46     60%     30.11 30.11 0    
May 11 15:54 3 10 Partly Cloudy FEW070 FEW100 SCT260 76 43     31%   75 30.01 30.01      
May 11 12:54 WNW 13 10 Partly Cloudy SCT055 SCT250 74 49     41%   73 30.01 30.01      
Jun 10 21:54 SSW 6 10 Mostly Clear FEW070 78 58     50%   78 30.05 30.04      
Jun 10 15:54   10 Mostly Clear FEW065 87 53     31%   85 29.99 29.99      
Jun 10 11:54 SW 9 10 Mostly Clear FEW150 FEW280 82 55     40%   81 30.03 30.03      
Jun 10 08:54 WSW 6 10 Mostly Cloudy FEW060 BKN120 BKN280 73 56     55%   73 30.03 30.03      
Jun 08 08:54 6 10 Clear   64 51     63%     30.01 30.01      
Jun 07 16:54 ENE 5 10 Cloudy OVC047 65 48     54%     30.02 30.01      
Jun 07 09:37 ENE 9 10 Cloudy BKN023 OVC040 57 47     69%     30.01        
Jun 06 06:32 NE 8 2 Rain and Fog/Mist SCT004 BKN012 OVC031 61 59     93%     29.7   0